Theta_e
354 354 348 348 353 348 348 346 350 349 343 346 347 350 347 345 349 348 346 340 339 340 342 347 344 344 345 347 344 346 346 345 343 342 346 345 343 342 342 343 342 344 344
355 354 348 349 354 353 351 348 351 350 347 347 349 351 351 350 350 348 345 343 340 338 343 342 347 344 344 348 347 347 347 343 342 343 343 343 342 342 341 342 341 341 341
355 354 354 351 355 355 353 351 349 345 351 351 352 351 352 352 351 350 350 347 344 342 341 343 342 346 347 345 348 346 346 345 342 344 345 341 339 340 340 340 341 341 341
356 356 351 354 356 355 351 353 351 352 354 352 353 351 351 351 351 351 351 350 349 347 344 342 341 343 346 348 348 348 346 342 340 341 342 340 338 340 338 338 337 337 338
357 356 355 355 355 353 354 354 352 353 352 351 350 350 351 352 352 352 352 352 351 349 349 345 344 344 343 348 348 346 343 341 340 338 339 339 339 338 337 336 337 336 337
357 355 355 355 354 352 353 354 353 352 352 351 350 350 351 353 353 352 352 351 351 351 350 351 348 345 344 347 348 347 343 342 338 338 339 337 339 338 336 334 334 334 335
358 358 355 356 355 354 353 354 353 353 352 352 350 352 353 354 353 353 354 353 352 351 351 351 352 347 345 344 346 345 345 347 341 341 341 340 338 338 336 335 335 334 334
358 357 358 355 356 356 353 353 353 351 351 351 354 353 357 354 354 354 354 353 352 351 352 351 350 350 350 349 348 344 344 347 347 345 340 339 339 339 338 337 337 337 335
359 357 360 356 356 356 356 355 354 353 353 354 355 353 357 354 353 354 354 353 353 352 351 351 350 350 350 350 349 348 344 343 343 344 346 345 343 340 339 339 338 337 337
358 358 360 357 358 356 356 356 356 356 356 353 352 351 353 355 352 357 353 352 352 352 351 351 351 350 351 349 349 349 346 343 342 341 342 343 343 342 342 341 341 340 339
358 360 359 360 357 356 357 356 357 357 354 354 353 353 355 355 354 353 353 351 352 351 352 352 350 350 349 348 348 348 343 343 343 342 342 343 343 342 341 340 340 341 341
358 362 360 361 358 353 357 357 357 357 358 357 355 355 353 355 354 351 351 351 348 349 350 351 352 352 347 349 348 348 340 341 341 340 336 329 326 324 325 326 326 324 324
354 358 359 359 357 357 357 356 357 358 358 357 358 355 353 351 349 351 349 347 347 348 349 350 351 350 349 348 349 344 338 336 334 329 325 322 319 317 316 317 317 317 317
356 359 359 360 361 358 356 357 356 353 353 355 357 356 353 351 348 347 346 346 347 347 348 349 350 351 350 348 349 342 341 334 329 324 323 317 316 315 315 315 315 316 316
356 360 361 361 363 361 357 356 356 356 353 353 351 353 354 345 345 345 344 343 343 347 350 347 348 349 351 350 348 344 343 331 325 323 319 317 315 313 314 315 316 316 316
360 359 361 361 362 362 361 359 355 356 357 352 348 350 349 348 346 343 340 340 341 344 347 344 344 345 345 348 349 347 342 328 325 324 320 318 315 313 314 316 316 316 316
358 361 357 357 358 359 363 362 362 358 359 358 355 352 355 355 350 345 343 343 342 343 343 344 344 345 345 346 346 347 341 331 327 323 320 319 317 315 317 318 317 316 316
357 361 362 360 362 361 362 362 361 359 360 358 358 358 356 356 354 350 348 345 343 343 343 344 345 344 345 346 345 346 340 334 334 326 322 323 318 318 318 318 319 318 317
358 357 359 362 361 360 361 361 360 360 357 358 358 360 360 358 357 353 352 348 346 343 341 342 342 341 339 344 344 343 339 337 335 333 327 325 322 319 319 319 318 318 318
359 359 360 361 362 362 361 360 359 360 361 358 359 359 359 360 359 358 356 352 346 341 340 341 339 338 337 342 344 343 342 336 336 333 331 329 327 322 319 318 318 318 318
362 363 364 364 364 362 360 361 362 360 360 360 357 358 359 360 360 359 356 355 350 342 342 340 338 337 336 340 343 343 341 339 336 333 328 325 326 325 324 321 323 322 321
363 361 359 361 365 363 361 357 358 361 362 363 362 358 358 358 360 358 355 352 350 345 339 337 337 337 336 339 341 341 340 339 334 332 328 327 325 325 325 326 325 323 322
356 355 358 358 358 360 358 355 354 357 356 356 360 362 362 358 357 360 355 350 342 341 342 340 338 335 335 340 341 341 339 336 333 331 329 328 327 324 325 325 324 321 321
350 353 355 359 358 354 350 346 344 342 351 345 350 359 362 363 362 361 355 348 343 341 343 342 337 330 331 339 341 342 339 336 334 329 328 329 328 324 327 328 327 322 321
351 352 352 353 353 354 354 347 344 347 346 350 354 356 361 361 360 359 353 349 347 344 343 342 332 329 331 336 340 339 339 336 332 331 330 327 326 327 327 327 327 320 319
350 348 347 347 347 347 347 343 339 343 347 349 353 353 352 350 352 350 352 345 343 343 340 333 331 332 328 330 333 338 336 334 332 332 330 325 327 325 326 324 324 325 325
Wind_Speed
5 7 4 1 4 6 9 7 12 10 9 7 4 3 5 5 4 6 6 10 6 2 1 8 9 10 10 10 8 9 9 8 8 8 8 7 8 7 7 7 7 8 9
6 7 6 5 1 5 9 8 8 9 9 8 5 5 5 5 5 6 4 8 8 5 2 8 7 9 11 12 10 10 10 10 9 9 8 8 7 7 6 6 6 7 8
6 7 6 7 2 3 9 8 6 6 7 6 6 5 6 5 5 6 6 6 7 9 5 9 13 12 11 12 12 12 12 10 11 11 9 7 8 8 7 6 6 6 8
5 5 5 6 4 3 5 8 9 7 7 8 9 5 5 5 5 5 5 5 6 11 9 2 15 16 15 14 14 13 12 13 12 10 9 9 9 7 5 6 6 8 8
2 5 4 5 5 5 5 8 9 8 8 8 7 5 4 4 4 5 5 4 5 8 9 7 9 11 17 16 15 15 14 12 10 11 11 11 10 9 9 9 8 9 12
1 5 4 4 4 6 6 9 10 9 8 7 4 5 4 4 3 4 4 4 5 6 7 8 9 8 16 16 15 14 14 12 14 13 13 12 11 12 12 14 15 13 14
1 2 4 4 5 6 7 8 9 8 7 6 6 5 5 5 6 3 3 5 5 5 4 7 7 7 13 18 19 16 15 15 14 13 12 12 12 14 15 14 16 18 18
1 1 3 3 4 6 7 7 6 8 6 6 3 7 3 4 4 4 4 4 5 5 4 6 7 8 9 12 17 21 19 16 13 12 13 15 15 14 15 16 17 17 17
3 2 2 2 4 4 5 7 8 6 5 6 4 3 2 3 6 4 4 4 5 5 6 6 7 7 8 8 8 13 19 18 16 14 14 16 16 17 17 17 16 15 15
5 3 2 3 3 2 4 5 5 4 6 6 4 4 4 5 2 5 4 5 6 6 6 7 7 8 9 9 9 12 13 16 16 15 15 13 12 10 8 10 11 13 14
6 5 3 4 3 3 4 3 5 5 4 2 3 2 1 2 2 5 2 2 3 6 7 9 10 8 8 8 8 9 12 12 12 10 8 7 5 3 3 4 5 6 8
5 5 3 4 4 5 4 4 5 5 4 2 2 2 3 2 3 3 3 3 2 3 7 8 10 10 10 9 7 10 10 11 11 11 8 6 5 4 3 3 3 4 4
5 5 5 5 5 6 7 6 5 5 5 5 5 5 4 4 3 4 5 2 4 1 4 7 10 11 12 12 11 11 12 12 12 10 8 6 5 4 4 3 3 3 3
5 4 7 7 7 7 8 7 6 7 8 8 8 8 8 7 7 6 6 6 3 9 4 5 4 11 12 13 13 14 13 14 12 11 8 7 4 4 4 3 2 2 1
8 6 7 7 6 8 8 7 6 6 7 8 9 10 10 8 7 8 6 6 8 8 3 6 4 7 10 12 16 14 13 15 13 11 8 6 5 4 5 4 3 3 3
8 6 6 7 7 6 7 9 8 8 9 9 10 9 10 9 8 7 7 6 8 10 7 1 2 4 7 10 13 13 12 16 15 12 12 8 6 6 6 5 3 4 4
11 9 8 10 10 10 10 10 11 9 10 10 10 11 12 10 10 8 8 7 8 8 11 2 2 4 6 9 11 15 15 15 14 14 13 10 9 9 9 7 5 5 5
14 13 12 13 13 12 12 10 12 12 12 12 14 14 14 13 12 12 11 10 8 7 10 8 2 6 7 10 12 16 15 16 13 15 14 13 11 10 10 9 7 6 6
16 16 16 15 15 15 15 13 14 16 17 16 17 17 17 16 15 15 15 13 11 9 11 9 9 7 7 10 13 14 15 15 14 15 15 14 14 14 13 11 10 8 8
16 16 16 16 16 16 16 16 16 16 17 19 20 20 20 20 20 19 18 16 13 12 14 11 9 8 9 12 14 15 16 16 15 13 13 14 15 17 15 14 13 13 12
14 15 15 16 17 18 19 19 18 18 18 19 22 23 23 24 26 26 22 19 16 15 15 12 9 10 10 12 16 19 18 16 13 12 12 12 12 13 14 16 14 13 13
16 15 15 13 15 17 20 21 22 19 18 19 21 23 25 26 28 32 30 23 20 16 16 15 13 11 14 14 16 17 18 13 12 13 12 12 12 11 11 12 12 12 11
10 9 12 13 15 17 19 20 17 14 14 14 19 20 21 23 24 22 24 29 21 14 17 18 12 14 12 15 16 17 16 13 12 11 14 11 8 11 9 6 9 10 11
15 14 13 12 13 13 18 19 18 23 19 21 17 17 22 22 21 20 18 18 23 17 19 20 18 16 13 11 17 19 12 11 6 8 12 10 6 8 6 5 8 7 8
10 10 10 9 9 10 14 12 16 16 20 19 14 15 17 18 18 21 23 26 19 23 22 22 21 20 20 13 16 13 13 15 12 11 11 9 6 5 4 4 3 1 1
10 10 10 11 12 10 10 11 10 9 10 11 8 10 13 8 13 17 25 26 22 21 19 17 21 18 16 15 16 14 12 15 15 10 11 11 7 7 8 5 3 3 3
Wind_Direction
318 312 330 23 179 194 188 199 203 196 203 208 198 174 166 165 145 150 172 209 216 326 276 207 205 202 203 196 192 184 185 185 187 195 191 199 204 203 212 211 215 212 212
312 317 346 5 83 150 177 176 182 186 192 187 189 175 169 155 161 167 187 189 208 221 211 204 208 216 208 202 195 193 194 196 197 198 199 202 210 219 221 215 227 230 226
308 331 347 5 25 128 167 177 167 169 187 167 161 158 152 156 164 173 173 199 200 215 202 230 217 209 215 209 204 206 203 203 200 206 209 211 219 227 235 232 243 245 244
301 338 346 6 40 93 154 157 155 150 143 151 157 154 156 164 174 180 192 203 205 192 210 209 211 221 210 212 209 209 212 203 206 210 210 209 226 225 243 256 252 252 253
300 352 18 34 51 76 113 139 150 144 145 148 145 148 147 151 183 199 209 215 201 196 197 203 208 216 207 210 209 213 213 215 220 216 216 217 220 216 217 233 240 252 253
326 18 38 61 85 84 113 141 149 155 154 146 140 144 152 162 179 202 210 199 191 203 192 183 190 205 202 205 211 213 214 213 217 217 221 221 222 222 219 233 234 234 244
352 43 46 81 81 81 112 138 146 154 158 163 170 152 164 187 193 215 221 219 209 205 189 178 179 189 192 201 207 215 216 216 224 223 227 232 229 225 231 233 235 241 245
218 63 77 92 97 109 118 136 159 154 156 166 171 178 178 172 189 204 205 204 198 192 182 182 184 183 183 199 213 214 216 216 225 233 240 241 242 240 237 240 239 247 251
202 145 141 123 125 147 140 149 159 170 148 180 218 294 226 100 172 169 186 190 184 197 185 191 190 193 191 190 196 216 220 222 225 234 245 254 259 256 258 252 249 254 258
203 180 171 130 152 158 155 174 177 182 204 170 182 238 322 346 355 148 179 190 191 207 203 200 189 197 199 197 192 196 205 221 229 239 250 260 265 263 253 247 245 242 245
213 208 192 158 165 185 182 195 194 207 193 247 228 170 242 246 281 310 47 96 209 247 214 211 209 205 198 203 195 204 211 207 211 213 205 202 194 193 208 221 221 214 220
199 214 205 185 179 186 200 210 207 211 239 254 258 265 245 260 295 284 279 178 216 232 239 236 211 202 194 199 202 203 198 185 182 181 182 172 166 179 186 199 200 213 224
221 194 196 200 190 197 202 211 218 226 225 230 229 252 268 276 282 265 292 258 310 120 241 248 234 211 202 198 201 192 184 182 184 179 177 176 177 185 204 211 211 219 229
221 201 207 204 196 195 205 211 220 230 227 234 238 246 263 269 263 263 283 306 309 251 201 213 240 223 211 209 196 197 187 188 184 177 177 177 171 193 200 194 195 201 164
233 228 207 219 219 204 206 209 228 232 237 237 245 244 251 265 260 262 261 267 294 298 321 161 198 219 208 218 205 193 191 189 186 185 174 181 198 191 177 186 184 169 156
235 235 218 220 242 232 221 216 231 227 228 235 242 240 244 259 259 254 245 254 271 281 294 297 235 218 206 206 211 202 194 193 192 189 187 189 190 185 180 171 167 164 153
235 232 228 240 242 243 237 230 237 241 232 238 242 246 250 251 260 260 248 263 266 267 280 272 211 225 194 197 203 193 202 195 198 197 192 193 192 185 183 183 181 181 184
232 235 230 228 232 234 239 238 242 243 245 239 244 247 251 249 246 252 247 251 249 262 272 283 272 228 239 203 197 193 200 201 203 207 201 204 201 198 202 207 207 209 219
227 232 235 234 235 239 241 241 245 239 238 240 246 244 245 246 242 245 239 239 235 218 235 248 265 231 219 201 192 195 196 203 205 209 211 214 215 216 216 223 228 234 239
222 227 230 233 234 236 241 243 241 247 246 244 245 250 250 246 242 239 236 237 227 220 220 218 232 222 220 202 197 194 204 202 206 202 212 219 228 223 226 234 242 244 245
230 230 229 229 228 225 225 229 229 230 238 246 251 252 253 251 244 238 234 227 222 218 222 212 209 236 215 186 210 207 212 203 206 213 206 208 212 219 234 238 241 249 252
209 216 217 222 233 230 228 224 226 227 231 237 248 252 256 259 257 254 246 224 219 209 200 221 197 222 225 215 215 209 214 195 197 210 215 220 210 217 235 217 210 234 238
237 230 249 245 231 227 241 234 229 240 240 239 246 254 259 260 260 250 256 232 230 229 218 224 210 224 234 223 227 204 217 199 232 176 204 225 208 236 236 203 225 244 241
263 260 264 264 253 258 262 262 259 264 256 268 267 249 254 257 257 244 232 222 218 220 229 224 214 218 228 267 225 209 196 202 201 188 198 246 193 230 202 234 276 253 249
279 281 282 286 282 279 268 262 260 268 264 264 269 271 256 257 255 256 227 205 213 229 224 221 217 213 212 239 222 195 191 193 199 201 208 238 189 206 208 208 237 263 229
273 280 285 283 277 279 279 279 276 275 277 282 284 274 279 266 262 267 231 195 188 203 197 200 207 212 214 237 210 201 204 208 216 184 196 206 179 203 183 174 212 206 245